TimeIST,TemperatureF,Dew PointF,Humidity,Sea Level PressureIn,VisibilityMPH,Wind Direction,Wind SpeedMPH,Gust SpeedMPH,PrecipitationIn,Events,Conditions,WindDirDegrees,DateUTC
12:00 AM,59.0,55.4,88,30.27,6.2,SW,11.5,-,N/A,,Overcast,230,2013-06-29 23:00:00
12:30 AM,59.0,55.4,88,30.27,6.2,WSW,13.8,-,N/A,,Mostly Cloudy,240,2013-06-29 23:30:00
1:00 AM,58,54,83,30.28,12,SW,11.2,,,,Partly Cloudy,220,2013-06-30 00:00:00
1:00 AM,59.0,53.6,82,30.27,6.2,SW,11.5,-,N/A,,Overcast,220,2013-06-30 00:00:00
1:30 AM,59.0,53.6,82,30.24,6.2,SSW,6.9,-,N/A,,Mostly Cloudy,200,2013-06-30 00:30:00
2:00 AM,59.0,55.4,88,30.24,6.2,SW,11.5,-,N/A,,Mostly Cloudy,220,2013-06-30 01:00:00
2:30 AM,59.0,53.6,82,30.24,6.2,SSW,11.5,-,N/A,,Overcast,210,2013-06-30 01:30:00
3:00 AM,59.0,53.6,82,30.21,6.2,SSW,11.5,-,N/A,,Overcast,210,2013-06-30 02:00:00
3:30 AM,57.2,53.6,88,30.21,6.2,SW,18.4,-,N/A,,Mostly Cloudy,220,2013-06-30 02:30:00
4:00 AM,57.2,53.6,88,30.21,6.2,SW,11.5,-,N/A,Rain,Light Rain,220,2013-06-30 03:00:00
4:30 AM,57.2,53.6,88,30.18,6.2,South,11.5,-,N/A,,Overcast,190,2013-06-30 03:30:00
5:00 AM,57.2,53.6,88,30.18,6.2,SSW,11.5,-,N/A,,Overcast,200,2013-06-30 04:00:00
5:30 AM,57.2,53.6,88,30.15,6.2,SW,13.8,-,N/A,,Overcast,220,2013-06-30 04:30:00
6:00 AM,59.0,53.6,82,30.15,6.2,SSW,12.7,-,N/A,,Mostly Cloudy,210,2013-06-30 05:00:00
6:30 AM,59.0,53.6,82,30.15,6.2,SSW,13.8,-,N/A,,Mostly Cloudy,210,2013-06-30 05:30:00
7:00 AM,58,53,78,30.16,16,SW,15.7,,,,Partly Cloudy,220,2013-06-30 06:00:00
7:00 AM,59.0,53.6,82,30.15,6.2,SW,16.1,-,N/A,,Overcast,220,2013-06-30 06:00:00
7:30 AM,59.0,53.6,82,30.12,6.2,SW,17.3,-,N/A,,Mostly Cloudy,220,2013-06-30 06:30:00
8:00 AM,59.0,53.6,82,30.12,6.2,SSW,16.1,-,N/A,,Mostly Cloudy,210,2013-06-30 07:00:00
8:30 AM,59.0,53.6,82,30.12,6.2,SW,15.0,-,N/A,,Mostly Cloudy,220,2013-06-30 07:30:00
9:00 AM,59.0,53.6,82,30.12,6.2,SSW,13.8,-,N/A,,Mostly Cloudy,200,2013-06-30 08:00:00
9:30 AM,59.0,53.6,82,30.12,6.2,SSW,12.7,-,N/A,,Mostly Cloudy,200,2013-06-30 08:30:00
10:00 AM,60.8,55.4,82,30.12,6.2,SSW,12.7,-,N/A,,Mostly Cloudy,210,2013-06-30 09:00:00
10:30 AM,60.8,55.4,82,30.09,6.2,SW,17.3,-,N/A,,Mostly Cloudy,220,2013-06-30 09:30:00
11:00 AM,60.8,55.4,82,30.09,6.2,SSW,15.0,-,N/A,,Mostly Cloudy,210,2013-06-30 10:00:00
11:30 AM,59.0,55.4,88,30.09,3.1,SW,20.7,-,N/A,,Light Drizzle,220,2013-06-30 10:30:00
12:00 PM,59.0,57.2,94,30.09,2.5,SSW,16.1,-,N/A,,Light Drizzle,210,2013-06-30 11:00:00
12:30 PM,59.0,57.2,94,30.09,2.2,SSW,16.1,-,N/A,,Light Drizzle,210,2013-06-30 11:30:00
1:00 PM,59,58,94,30.09,5,SW,20.1,,,Rain,Light Drizzle,220,2013-06-30 12:00:00
1:00 PM,59.0,59.0,100,30.09,5.0,SW,20.7,-,N/A,,Light Drizzle,230,2013-06-30 12:00:00
1:30 PM,59.0,57.2,94,30.09,6.2,WSW,19.6,-,N/A,,Mostly Cloudy,250,2013-06-30 12:30:00
2:00 PM,57.2,53.6,88,30.09,6.2,West,17.3,-,N/A,,Light Drizzle,270,2013-06-30 13:00:00
2:30 PM,57.2,53.6,88,30.09,6.2,WSW,18.4,-,N/A,,Light Drizzle,250,2013-06-30 13:30:00
3:00 PM,59.0,51.8,77,30.09,6.2,WSW,20.7,-,N/A,,Mostly Cloudy,250,2013-06-30 14:00:00
3:30 PM,59.0,51.8,77,30.09,6.2,WSW,23.0,-,N/A,,Light Drizzle,240,2013-06-30 14:30:00
4:00 PM,59.0,48.2,67,30.09,6.2,WSW,20.7,-,N/A,,Mostly Cloudy,250,2013-06-30 15:00:00
4:30 PM,59.0,50.0,72,30.09,6.2,WSW,20.7,-,N/A,,Mostly Cloudy,250,2013-06-30 15:30:00
5:00 PM,59.0,48.2,67,30.09,6.2,WSW,20.7,-,N/A,,Mostly Cloudy,250,2013-06-30 16:00:00
5:30 PM,59.0,50.0,72,30.09,6.2,WSW,17.3,-,N/A,,Mostly Cloudy,250,2013-06-30 16:30:00
6:00 PM,59.0,50.0,72,30.09,6.2,WSW,20.7,-,N/A,,Mostly Cloudy,250,2013-06-30 17:00:00
6:30 PM,59.0,48.2,67,30.09,6.2,West,18.4,-,N/A,,Mostly Cloudy,260,2013-06-30 17:30:00
7:00 PM,58,47,58,30.10,11,WSW,20.1,,,,Partly Cloudy,250,2013-06-30 18:00:00
7:00 PM,57.2,46.4,67,30.09,6.2,WSW,19.6,-,N/A,,Mostly Cloudy,250,2013-06-30 18:00:00
7:30 PM,57.2,48.2,72,30.09,6.2,WSW,16.1,-,N/A,,Mostly Cloudy,250,2013-06-30 18:30:00
8:00 PM,57.2,48.2,72,30.09,6.2,West,18.4,-,N/A,,Mostly Cloudy,260,2013-06-30 19:00:00
8:30 PM,55.4,48.2,77,30.09,6.2,WSW,15.0,-,N/A,,Mostly Cloudy,250,2013-06-30 19:30:00
9:00 PM,55.4,48.2,77,30.09,6.2,West,12.7,-,N/A,,Mostly Cloudy,260,2013-06-30 20:00:00
9:30 PM,55.4,48.2,77,30.09,5.6,West,12.7,-,N/A,,Mostly Cloudy,260,2013-06-30 20:30:00
10:00 PM,55.4,48.2,77,30.09,5.6,WSW,12.7,-,N/A,,Mostly Cloudy,250,2013-06-30 21:00:00
10:30 PM,55.4,48.2,77,30.09,5.6,WSW,11.5,-,N/A,,Mostly Cloudy,250,2013-06-30 21:30:00
11:00 PM,55.4,50.0,82,30.09,5.6,WSW,12.7,-,N/A,,Mostly Cloudy,250,2013-06-30 22:00:00
11:30 PM,55.4,50.0,82,30.09,6.2,WSW,10.4,-,N/A,,Mostly Cloudy,250,2013-06-30 22:30:00